TimeEST,TemperatureF,Dew PointF,Humidity,Sea Level PressureIn,VisibilityMPH,Wind Direction,Wind SpeedMPH,Gust SpeedMPH,PrecipitationIn,Events,Conditions,WindDirDegrees,DateUTC
12:15 AM,65.7,63.5,93,30.16,10.0,SSW,3.5,-,N/A,,Mostly Cloudy,200,2013-01-15 05:15:00
12:35 AM,65.3,63.5,94,30.16,10.0,Calm,Calm,-,N/A,,Scattered Clouds,0,2013-01-15 05:35:00
12:55 AM,64.9,63.1,94,30.16,10.0,Calm,Calm,-,N/A,,Clear,0,2013-01-15 05:55:00
1:15 AM,64.4,63.0,95,30.16,10.0,Calm,Calm,-,N/A,,Clear,0,2013-01-15 06:15:00
1:35 AM,63.9,62.6,96,30.16,10.0,Calm,Calm,-,N/A,,Clear,0,2013-01-15 06:35:00
1:55 AM,63.5,62.6,97,30.15,10.0,Calm,Calm,-,N/A,,Clear,0,2013-01-15 06:55:00
2:15 AM,63.9,62.8,96,30.15,10.0,Calm,Calm,-,N/A,,Clear,0,2013-01-15 07:15:00
2:35 AM,64.0,63.0,96,30.15,10.0,Calm,Calm,-,N/A,,Clear,0,2013-01-15 07:35:00
2:55 AM,63.7,62.8,97,30.14,10.0,Calm,Calm,-,N/A,,Clear,0,2013-01-15 07:55:00
3:15 AM,63.5,62.6,97,30.14,10.0,Calm,Calm,-,N/A,,Clear,0,2013-01-15 08:15:00
3:35 AM,63.5,62.6,97,30.13,10.0,Calm,Calm,-,N/A,,Clear,0,2013-01-15 08:35:00
3:55 AM,62.8,62.1,97,30.13,7.0,Calm,Calm,-,N/A,,Clear,0,2013-01-15 08:55:00
4:15 AM,60.1,59.9,99,30.13,4.0,Calm,Calm,-,N/A,,Clear,0,2013-01-15 09:15:00
4:35 AM,59.7,59.7,100,30.13,5.0,Calm,Calm,-,N/A,,Clear,0,2013-01-15 09:35:00
4:55 AM,59.9,59.9,100,30.12,4.0,Calm,Calm,-,N/A,,Clear,0,2013-01-15 09:55:00
5:35 AM,60.3,60.3,100,30.11,4.0,Calm,Calm,-,N/A,,Clear,0,2013-01-15 10:35:00
5:55 AM,59.5,59.5,100,30.11,4.0,Calm,Calm,-,N/A,,Clear,0,2013-01-15 10:55:00
6:15 AM,58.3,58.3,100,30.11,2.5,Calm,Calm,-,N/A,,Clear,0,2013-01-15 11:15:00
6:35 AM,58.1,58.1,100,30.11,2.5,Calm,Calm,-,N/A,,Clear,0,2013-01-15 11:35:00
6:55 AM,57.6,57.6,100,30.12,2.0,Calm,Calm,-,N/A,,Clear,0,2013-01-15 11:55:00
7:15 AM,58.5,58.5,100,30.12,2.0,Calm,Calm,-,N/A,,Clear,0,2013-01-15 12:15:00
7:35 AM,58.1,58.1,100,30.13,2.5,Calm,Calm,-,N/A,,Clear,0,2013-01-15 12:35:00
7:55 AM,57.2,57.2,100,30.14,1.2,Calm,Calm,-,N/A,,Mist,0,2013-01-15 12:55:00
8:15 AM,58.6,58.6,100,30.15,3.0,Calm,Calm,-,N/A,,Clear,0,2013-01-15 13:15:00
8:35 AM,61.3,61.3,100,30.16,5.0,Calm,Calm,-,N/A,,Clear,0,2013-01-15 13:35:00
8:55 AM,63.3,63.3,100,30.16,7.0,SSW,3.5,-,N/A,,Clear,200,2013-01-15 13:55:00
9:15 AM,64.9,63.1,94,30.16,10.0,Calm,Calm,-,N/A,,Clear,0,2013-01-15 14:15:00
9:35 AM,67.3,63.5,88,30.16,10.0,SW,3.5,-,N/A,,Clear,220,2013-01-15 14:35:00
9:55 AM,69.8,63.7,81,30.17,10.0,SSW,4.6,-,N/A,,Clear,210,2013-01-15 14:55:00
10:15 AM,70.7,63.5,78,30.17,10.0,SSW,4.6,-,N/A,,Clear,200,2013-01-15 15:15:00
10:35 AM,72.0,63.3,74,30.16,10.0,SSW,4.6,-,N/A,,Clear,210,2013-01-15 15:35:00
10:55 AM,73.9,63.0,68,30.15,10.0,SW,8.1,-,N/A,,Clear,220,2013-01-15 15:55:00
11:15 AM,74.8,63.3,67,30.14,10.0,South,4.6,-,N/A,,Clear,170,2013-01-15 16:15:00
11:35 AM,75.4,63.1,66,30.13,10.0,SSW,5.8,-,N/A,,Clear,210,2013-01-15 16:35:00
11:55 AM,76.5,63.1,63,30.12,10.0,SSW,8.1,-,N/A,,Clear,210,2013-01-15 16:55:00
12:15 PM,76.8,63.1,63,30.11,10.0,SW,6.9,-,N/A,,Clear,220,2013-01-15 17:15:00
12:35 PM,78.3,63.1,60,30.10,10.0,South,4.6,-,N/A,,Clear,190,2013-01-15 17:35:00
12:55 PM,79.2,62.8,57,30.09,10.0,SW,6.9,-,N/A,,Clear,230,2013-01-15 17:55:00
1:15 PM,78.8,62.1,56,30.08,10.0,SW,6.9,-,N/A,,Clear,220,2013-01-15 18:15:00
1:35 PM,79.9,62.4,55,30.07,10.0,South,6.9,-,N/A,,Scattered Clouds,190,2013-01-15 18:35:00
1:55 PM,80.1,61.7,53,30.06,10.0,WSW,8.1,-,N/A,,Scattered Clouds,240,2013-01-15 18:55:00
2:15 PM,80.6,61.0,51,30.06,10.0,SSW,8.1,-,N/A,,Clear,210,2013-01-15 19:15:00
2:35 PM,80.6,61.0,51,30.06,10.0,SW,5.8,-,N/A,,Scattered Clouds,220,2013-01-15 19:35:00
2:55 PM,80.1,61.0,52,30.05,10.0,SSW,9.2,-,N/A,,Scattered Clouds,200,2013-01-15 19:55:00
3:15 PM,80.2,61.2,52,30.05,10.0,SSW,6.9,-,N/A,,Clear,200,2013-01-15 20:15:00
3:35 PM,80.1,61.2,52,30.05,10.0,SSW,6.9,-,N/A,,Scattered Clouds,200,2013-01-15 20:35:00
3:55 PM,80.1,61.2,52,30.06,10.0,SSW,8.1,-,N/A,,Scattered Clouds,210,2013-01-15 20:55:00
4:35 PM,78.8,62.4,57,30.06,10.0,South,5.8,-,N/A,,Mostly Cloudy,190,2013-01-15 21:35:00
4:55 PM,77.9,62.4,59,30.06,10.0,SSW,3.5,-,N/A,,Scattered Clouds,200,2013-01-15 21:55:00
5:55 PM,74.7,62.2,65,30.07,10.0,Calm,Calm,-,N/A,,Clear,0,2013-01-15 22:55:00
6:35 PM,72.9,62.4,70,30.08,10.0,Calm,Calm,-,N/A,,Mostly Cloudy,0,2013-01-15 23:35:00
6:55 PM,72.5,62.2,70,30.08,10.0,South,3.5,-,N/A,,Mostly Cloudy,170,2013-01-15 23:55:00
7:15 PM,71.6,62.6,73,30.08,10.0,Calm,Calm,-,N/A,,Scattered Clouds,0,2013-01-16 00:15:00
7:35 PM,70.7,62.2,75,30.08,10.0,Calm,Calm,-,N/A,,Scattered Clouds,0,2013-01-16 00:35:00
7:55 PM,70.3,62.2,75,30.08,10.0,SSE,3.5,-,N/A,,Mostly Cloudy,160,2013-01-16 00:55:00
8:15 PM,70.0,63.3,79,30.07,10.0,South,4.6,-,N/A,,Scattered Clouds,170,2013-01-16 01:15:00
8:35 PM,69.8,64.0,82,30.07,10.0,South,3.5,-,N/A,,Scattered Clouds,170,2013-01-16 01:35:00
8:55 PM,69.4,64.6,84,30.06,10.0,South,5.8,-,N/A,,Mostly Cloudy,170,2013-01-16 01:55:00
9:15 PM,69.4,64.9,86,30.06,10.0,South,3.5,-,N/A,,Mostly Cloudy,170,2013-01-16 02:15:00
9:35 PM,69.6,65.1,86,30.05,10.0,South,4.6,-,N/A,,Mostly Cloudy,180,2013-01-16 02:35:00
9:55 PM,69.3,64.9,86,30.05,10.0,South,3.5,-,N/A,,Mostly Cloudy,190,2013-01-16 02:55:00
10:15 PM,68.9,64.6,86,30.05,10.0,South,4.6,-,N/A,,Clear,190,2013-01-16 03:15:00
10:35 PM,68.7,64.4,86,30.06,10.0,SSW,4.6,-,N/A,,Scattered Clouds,200,2013-01-16 03:35:00
10:55 PM,68.4,64.0,86,30.05,10.0,SSW,3.5,-,N/A,,Scattered Clouds,200,2013-01-16 03:55:00
11:15 PM,68.2,63.9,86,30.05,10.0,SSW,4.6,-,N/A,,Scattered Clouds,200,2013-01-16 04:15:00
11:35 PM,68.4,64.0,86,30.05,10.0,SSW,5.8,-,N/A,,Scattered Clouds,200,2013-01-16 04:35:00
11:55 PM,68.7,64.4,86,30.05,10.0,SSW,5.8,-,N/A,,Mostly Cloudy,200,2013-01-16 04:55:00